TIME,DELAY(SENSOR),PRES,OXYGEN,RAWTEMP,T(OPTODE),TCPHASE,FLUOR,BETA(BETA700),BETA(BETA412),BETA(BETA440),CDOM,C(CSC),ED(ED412.40),ED(ED444.00),ED(ED489.70),ED(ED554.30),LU(LU411.80),LU(LU443.40),LU(LU489.60),LU(LU554.10),COMP,TILTX,TILTY,CHECK
1377317625,5809,877.8400268554688000,45.9944000244140600,662.5147705078125000,4.5451469421386720,54.1401786804199200,52,101,88,78,78,15291,2147755501,2147424164,2148013138,2147875876,2147644022,2147055213,2148255515,2147197092,2216,4,13,1879
1377321221,5808,946.8099975585938000,49.2512893676757800,670.5170288085938000,4.2811160087585450,53.7782211303710940,52,99,82,79,78,15293,2147751552,2147426550,2148008018,2147869485,2147640969,2147057526,2148262802,2147197376,457,4,13,65253
1377324821,5808,958.8300170898438000,50.2911987304687500,673.0020751953125000,4.1989769935607910,53.6641387939453100,53,99,85,78,79,15293,2147754011,2147427382,2148010230,2147874605,2147641746,2147052717,2148264219,2147199232,3431,4,13,30374
1377328421,5806,995.7399902343750000,50.5530700683593750,674.3673706054688000,4.1538162231445310,53.6479415893554700,53,98,85,78,80,15295,2147754907,2147428324,2148008594,2147875209,2147643766,2147057371,2148261540,2147194587,250,4,13,63415
1377332021,5808,1004.2299804687500000,49.7479209899902340,672.9531250000000000,4.2005939483642580,53.7414512634277340,52,99,85,78,79,15293,2147755209,2147424996,2148010285,2147873956,2147642112,2147054893,2148255661,2147197696,3514,4,13,41032
1377335621,5810,1006.7100219726562000,49.9676208496093750,673.4146728515625000,4.1853308677673340,53.7159309387207000,52,97,82,79,79,15290,2147754038,2147427428,2148011483,2147876690,2147644306,2147053595,2148261558,2147198409,428,4,13,23606
1377339221,5812,1010.9000244140625000,49.5009498596191400,672.5654296875000000,4.2134151458740230,53.7747688293457000,53,98,84,79,78,15292,2147755510,2147428077,2148011510,2147875163,2147643648,2147056073,2148258614,2147199734,18,4,13,30638
1377342821,5811,1008.2000122070312000,49.4472999572753900,673.2163085937500000,4.1918931007385250,53.7860412597656250,53,97,83,79,79,15292,2147755099,2147426678,2148009892,2147876470,2147643465,2147057435,2148264749,2147192996,3327,4,13,62201
1377346421,5810,1009.4299926757812000,49.3757896423339840,673.4517211914062000,4.1841068267822270,53.7975082397460940,52,100,86,79,78,15292,2147753947,2147425874,2148007268,2147875702,2147643126,2147056886,2148262418,2147202011,148,4,13,60390
1377350021,5812,1003.5499877929688000,49.8165817260742200,673.7841796875000000,4.1731090545654300,53.7416992187500000,53,100,86,79,79,15294,2147756041,2147424146,2148009298,2147874797,2147645494,2147059958,2148263451,2147196370,3434,4,13,63514
1377353621,5804,1001.5200195312500000,50.0686988830566400,675.5484008789062000,4.1147370338439940,53.7311592102050800,53,95,83,77,79,15291,2147755181,2147428388,2148012772,2147874706,2147643867,2147055433,2148260580,2147197668,250,4,13,605
1377357221,5813,997.5499877929688000,50.5434417724609400,676.7659301757812000,4.0744338035583500,53.6809806823730500,52,99,88,79,79,15294,2147755922,2147424822,2148012790,2147875766,2147641408,2147051410,2148260114,2147201014,80,4,13,9480
1377360821,5810,998.9600219726562000,50.8916397094726560,677.4550781250000000,4.0516109466552730,53.6424903869628900,52,98,84,79,80,15292,2147755520,2147427163,2148011986,2147874450,2147643300,2147052507,2148262793,2147198226,84,4,13,14152
1377364421,5805,1007.8099975585938000,50.7973899841308600,677.1378784179688000,4.0621151924133300,53.6540489196777340,53,98,91,78,80,15288,2147757101,2147422363,2148008128,2147873846,2147643593,2147050112,2148257883,2147196955,778,4,13,4621
1377368021,5810,1000.2199707031250000,50.7696609497070300,676.7202148437500000,4.0759468078613280,53.6503601074218750,51,99,83,81,79,15294,2147752256,2147426998,2148009490,2147874678,2147644964,2147051364,2148260470,2147195547,281,4,13,22306
1377371621,5809,1006.0100097656250000,50.7986106872558600,676.7905273437500000,4.0736198425292970,53.6493797302246100,52,98,87,78,81,15287,2147753728,2147424877,2148009673,2147875145,2147645952,2147055186,2148257142,2147196973,3544,3,13,26405
1377375221,5807,1002.0700073242188000,50.6493988037109400,676.9426879882812000,4.0685791969299320,53.6652488708496100,53,114,83,78,80,15289,2147754349,2147426989,2148011090,2147874304,2147645778,2147049865,2148261019,2147198473,934,4,13,50389
1377378821,5810,1008.7700195312500000,51.0392799377441400,676.6657714843750000,4.0777468681335450,53.6152801513671900,52,97,87,77,79,15292,2147758464,2147427081,2148010313,2147876580,2147645467,2147053568,2148263049,2147196150,3477,4,13,60780
1377382421,5807,1004.3200073242188000,50.4807014465332000,676.7279052734375000,4.0756912231445310,53.6873283386230500,53,98,88,78,79,15288,2147751424,2147425517,2148013869,2147876626,2147645796,2147050139,2148266377,2147195072,425,4,13,12760
1377386021,5814,1004.8300170898438000,50.6269111633300800,677.2667236328125000,4.0578498840332030,53.6725692749023440,53,98,80,79,79,15288,2147754880,2147425563,2148012013,2147877120,2147638546,2147053202,2148267520,2147196882,3511,4,13,20054
1377389621,5808,1004.9000244140625000,50.7643089294433600,677.2697143554688000,4.0577511787414550,53.6562614440918000,52,96,85,78,80,15288,2147754450,2147422491,2148013613,2147873078,2147640804,2147056649,2148262244,2147198436,3498,3,13,3849
1377393221,5811,1007.8400268554688000,50.7052612304687500,677.3189697265625000,4.0561199188232420,53.6627082824707000,53,96,86,79,80,15288,2147755721,2147425938,2148008356,2147874331,2147642587,2147056905,2148262857,2147195163,3541,3,13,39882
1377396821,5808,1012.2600097656250000,51.3083305358886700,677.0764770507812000,4.0641479492187500,53.5820808410644500,53,102,86,78,80,15285,2147753837,2147421750,2148011867,2147875044,2147643977,2147052562,2148260982,2147198372,3059,4,13,26301
1377400421,5811,1006.2399902343750000,50.9533386230468750,677.7033081054688000,4.0433897972106930,53.6344490051269500,53,142,83,79,79,15284,2147751707,2147427053,2148012635,2147873938,2147641965,2147054336,2148264036,2147197833,33,4,13,51629
1377404021,5809,1019.7399902343750000,50.6280593872070300,675.9786987304688000,4.1004958152771000,53.6557197570800800,52,99,83,78,79,15284,2147754752,2147424347,2148012187,2147877997,2147641188,2147051090,2148258925,2147197622,329,4,13,31343
1377407621,5809,1013.9799804687500000,49.7905311584472660,675.9230957031250000,4.1023368835449220,53.7724189758300800,52,97,86,77,79,15283,2147753490,2147425700,2148015213,2147875593,2147642898,2147054930,2148264813,2147196891,215,4,13,44822
1377411221,5810,1011.7999877929688000,49.8259391784668000,676.1715698242188000,4.0941090583801270,53.7706794738769500,52,97,87,77,79,15281,2147755958,2147424018,2148013668,2147872713,2147644324,2147057024,2148256832,2147199570,87,4,13,54479
1377414821,5809,1020.7199707031250000,50.1363296508789060,675.7399291992188000,4.1083979606628420,53.7238502502441400,52,100,86,79,79,15281,2147753298,2147425142,2148011145,2147873764,2147643693,2147055232,2148258870,2147198034,3446,4,13,9109
1377418421,5809,1025.0400390625000000,50.2742118835449200,674.7379150390625000,4.1415581703186035,53.6898307800293000,52,107,83,78,79,15277,2147755026,2147426468,2148009426,2147874185,2147642861,2147053339,2148262592,2147195940,126,4,13,60155
1377422021,5809,1021.7899780273438000,50.1620101928710940,674.8834838867188000,4.1367440223693850,53.7105293273925800,52,98,86,79,77,15277,2147753298,2147426212,2148006747,2147874944,2147644480,2147051035,2148261741,2147192749,89,4,13,32584
1377425621,5808,1019.1699829101562000,49.7085914611816400,674.1430053710938000,4.1612401008605960,53.7631111145019500,52,97,83,79,80,15277,2147752466,2147424996,2148011840,2147876507,2147643785,2147054006,2148259245,2147199067,200,4,13,16149
1377429221,5812,1020.0999755859375000,49.5450782775878900,674.0076293945312000,4.1657199859619140,53.7847099304199200,53,100,89,78,80,15276,2147754706,2147426496,2148009353,2147874788,2147643364,2147054390,2148261796,2147196955,19,4,13,3581
1377432821,5808,1019.2500000000000000,49.8038406372070300,674.8052978515625000,4.1393299102783200,53.7594718933105500,53,101,82,79,78,15276,2147756370,2147427556,2148009636,2147875730,2147645540,2147052982,2148265243,2147197266,439,4,13,41358
1377436421,5808,1017.6900024414062000,49.4166603088378900,674.9896240234375000,4.1332302093505860,53.8102302551269500,53,96,86,78,78,15274,2147749330,2147423030,2148010358,2147872749,2147642258,2147059483,2148266304,2147199314,3489,4,13,11514
1377440021,5807,1001.3400268554688000,50.5418395996093750,677.5640258789062000,4.0480060577392580,53.6908302307128900,52,99,83,77,79,15277,2147754203,2147425472,2148010230,2147874550,2147644790,2147050825,2148263570,2147197156,914,4,13,22707
1377443621,5811,1001.3599853515625000,51.4634590148925800,678.9791870117188000,4.0011219978332520,53.5845298767089840,52,98,85,79,79,15279,2147756096,2147427995,2148014537,2147877421,2147644489,2147055670,2148265005,2147198354,364,4,13,24330
1377447221,5809,1006.2500000000000000,52.0297088623046900,679.2321777343750000,3.9927349090576170,53.5128402709960940,51,96,84,78,79,15276,2147755620,2147428562,2148014436,2147875154,2147644233,2147051629,2148258523,2147197558,3443,4,13,32240
1377450821,5809,1015.1099853515625000,51.5377616882324200,677.7463989257812000,4.0419640541076660,53.5612487792968750,52,99,83,79,79,15276,2147754642,2147422573,2148011684,2147876361,2147644004,2147053988,2148262573,2147198180,232,4,13,6116
1377454421,5808,1013.7199707031250000,51.1366195678710940,677.4786987304688000,4.0508289337158200,53.6073608398437500,52,100,87,79,79,15272,2147756214,2147427593,2148011392,2147875044,2147643821,2147053686,2148264329,2147194404,353,4,13,53999
1377458021,5810,1015.1400146484375000,51.1807403564453100,677.4703979492188000,4.0511040687561035,53.5989990234375000,53,97,89,79,79,15273,2147752859,2147426843,2148011849,2147876882,2147643437,2147057161,2148258057,2147199360,475,4,13,49691
1377460555,5810,1014.1900024414062000,50.9570693969726560,677.1605224609375000,4.0613670349121090,53.6295013427734400,52,97,83,79,79,15282,2147753901,2147425929,2148015012,2147875072,2147643611,2147049773,2148260736,2147196032,52,4,13,46461
